Weather History for Iowa Falls, IA

Change the Weather History Date:

Sunday, October 27, 2013

  Actual Average Record
Temperature  
Mean Temperature 42 °F -  
Max Temperature 60 °F 58 °F 81 °F (1966)
Min Temperature 25 °F 37 °F 18 °F (1957)
Degree Days  
Heating Degree Days 22    
Moisture  
Dew Point 28 °F    
Average Humidity 65    
Maximum Humidity 89    
Minimum Humidity 34    
Precipitation  
Precipitation 0.00 in - - ()
Sea Level Pressure  
Sea Level Pressure 29.97 in    
Wind  
Wind Speed 7 mph (SSW)    
Max Wind Speed 20 mph    
Max Gust Speed 23 mph    
Visibility 10 miles    
Events      
Averages and records for this station are not official NWS values.
T = Trace of Precipitation, MM = Missing Value Source: NWS Daily Summary

Daily Weather History Graph

Daily Weather History Graph

Search for Another Location

Airport:

Trip Planner

Search our weather history database for the weather conditions in past years. The results will help you decide how hot, cold, wet, or windy it might be!

Date:

Astronomy

Oct. 27, 2013 Rise Set
Actual Time 7:40 AM CDT 6:12 PM CDT
Civil Twilight 7:11 AM CDT 6:41 PM CDT
Nautical Twilight 6:38 AM CDT 7:14 PM CDT
Astronomical Twilight 6:06 AM CDT 7:46 PM CDT
Moon 12:30 AM CDT (10/27) 2:29 PM CDT (10/27)
Length of Visible Light 11h 29m
Length of Day
10h 31m
Last Quarter, 43% of the Moon is Illuminated
Oct 27
Last Quarter
Nov 3
New
Nov 9
First Quarter
Nov 17
Full
Nov 25
Last Quarter

Hourly Weather History & Observations

Time (CDT) Temp. Windchill Dew Point Humidity Pressure Visibility Wind Dir Wind Speed Gust Speed Precip Events Conditions
12:15 AM 28.4 °F 23.3 °F 24.3 °F 84% 30.10 in 10.0 mi SW 4.6 mph - N/A   Clear
12:35 AM 27.7 °F 23.8 °F 23.7 °F 85% 30.10 in 10.0 mi WSW 3.5 mph - N/A   Clear
12:55 AM 27.7 °F 23.8 °F 23.7 °F 85% 30.10 in 10.0 mi WSW 3.5 mph - N/A   Clear
1:15 AM 27.5 °F 22.2 °F 23.7 °F 86% 30.09 in 10.0 mi WSW 4.6 mph - N/A   Clear
1:35 AM 28.4 °F 23.3 °F 24.3 °F 84% 30.09 in 10.0 mi WSW 4.6 mph - N/A   Clear
1:55 AM 27.5 °F 23.6 °F 23.9 °F 86% 30.08 in 10.0 mi WSW 3.5 mph - N/A   Clear
2:15 AM 28.2 °F 23.1 °F 24.3 °F 85% 30.07 in 10.0 mi WSW 4.6 mph - N/A   Clear
2:35 AM 27.5 °F 23.6 °F 23.9 °F 86% 30.06 in 10.0 mi WSW 3.5 mph - N/A   Clear
2:55 AM 26.8 °F - 23.4 °F 87% 30.06 in 10.0 mi Calm Calm - N/A   Clear
3:15 AM 27.5 °F - 23.9 °F 86% 30.06 in 10.0 mi Calm Calm - N/A   Clear
3:35 AM 27.0 °F - 23.5 °F 87% 30.05 in 10.0 mi Calm Calm - N/A   Clear
3:55 AM 25.7 °F - 22.6 °F 88% 30.04 in 10.0 mi Calm Calm - N/A   Clear
4:15 AM 26.8 °F 19.3 °F 23.7 °F 88% 30.04 in 10.0 mi SW 6.9 mph - N/A   Clear
4:35 AM 26.6 °F 19.1 °F 23.4 °F 88% 30.03 in 10.0 mi SW 6.9 mph - N/A   Clear
4:55 AM 26.4 °F 22.4 °F 23.2 °F 88% 30.03 in 10.0 mi West 3.5 mph - N/A   Clear
5:15 AM 26.2 °F - 23.2 °F 88% 30.04 in 10.0 mi Calm Calm - N/A   Clear
5:35 AM 25.5 °F 19.9 °F 22.3 °F 88% 30.04 in 10.0 mi SW 4.6 mph - N/A   Clear
5:55 AM 25.3 °F 19.7 °F 22.6 °F 89% 30.04 in 10.0 mi SW 4.6 mph - N/A   Clear
6:15 AM 25.5 °F 18.7 °F 22.8 °F 89% 30.03 in 10.0 mi SW 5.8 mph - N/A   Clear
6:35 AM 25.9 °F 19.2 °F 23.0 °F 89% 30.03 in 10.0 mi SW 5.8 mph - N/A   Clear
6:55 AM 25.3 °F 19.7 °F 22.3 °F 88% 30.03 in 10.0 mi SW 4.6 mph - N/A   Clear
7:15 AM 25.3 °F 18.5 °F 22.5 °F 89% 30.02 in 10.0 mi SSW 5.8 mph - N/A   Clear
7:35 AM 25.7 °F 21.5 °F 22.5 °F 88% 30.02 in 10.0 mi South 3.5 mph - N/A   Clear
7:55 AM 27.7 °F 20.4 °F 24.3 °F 87% 30.01 in 10.0 mi SSW 6.9 mph - N/A   Clear
8:15 AM 29.1 °F 22.1 °F 24.8 °F 84% 30.01 in 10.0 mi SSW 6.9 mph - N/A   Clear
8:35 AM 30.9 °F 25.2 °F 25.5 °F 80% 30.01 in 10.0 mi SSW 5.8 mph - N/A   Clear
8:55 AM 32.0 °F 26.4 °F 26.6 °F 80% 30.02 in 10.0 mi SSW 5.8 mph - N/A   Clear
9:15 AM 33.8 °F 28.6 °F 27.9 °F 79% 30.02 in 10.0 mi SSW 5.8 mph - N/A   Clear
9:35 AM 36.7 °F 29.9 °F 29.3 °F 75% 30.01 in 10.0 mi SSW 9.2 mph - N/A   Clear
9:55 AM 39.6 °F 33.0 °F 30.6 °F 70% 30.00 in 10.0 mi SSW 10.4 mph - N/A   Clear
10:15 AM 43.0 °F 36.8 °F 30.7 °F 62% 30.00 in 10.0 mi SSW 11.5 mph - N/A   Clear
10:35 AM 44.4 °F 38.6 °F 30.2 °F 57% 29.99 in 10.0 mi SSW 11.5 mph - N/A   Clear
10:55 AM 46.4 °F 41.5 °F 30.7 °F 54% 29.97 in 10.0 mi SSW 10.4 mph - N/A   Clear
11:15 AM 48.6 °F - 30.0 °F 49% 29.97 in 10.0 mi SSW 16.1 mph 19.6 mph N/A   Clear
11:35 AM 49.8 °F - 29.5 °F 46% 29.97 in 10.0 mi SSW 15.0 mph 20.7 mph N/A   Clear
11:55 AM 51.1 °F - 29.7 °F 44% 29.96 in 10.0 mi SSW 12.7 mph - N/A   Clear
12:15 PM 52.3 °F - 30.4 °F 43% 29.95 in 10.0 mi SSW 13.8 mph 19.6 mph N/A   Clear
12:35 PM 53.8 °F - 29.7 °F 40% 29.94 in 10.0 mi SSW 16.1 mph 21.9 mph N/A   Clear
12:55 PM 54.7 °F - 30.2 °F 39% 29.93 in 10.0 mi SSW 15.0 mph - N/A   Clear
1:15 PM 55.9 °F - 30.4 °F 38% 29.92 in 10.0 mi South 16.1 mph 21.9 mph N/A   Clear
1:35 PM 57.0 °F - 30.6 °F 37% 29.91 in 10.0 mi South 15.0 mph - N/A   Clear
1:55 PM 57.7 °F - 30.9 °F 36% 29.90 in 10.0 mi SSW 16.1 mph 23.0 mph N/A   Clear
2:15 PM 58.5 °F - 31.5 °F 36% 29.88 in 10.0 mi South 15.0 mph 20.7 mph N/A   Clear
2:35 PM 59.0 °F - 31.3 °F 35% 29.87 in 10.0 mi SSW 16.1 mph 19.6 mph N/A   Clear
2:55 PM 60.1 °F - 31.8 °F 34% 29.86 in 10.0 mi South 15.0 mph 23.0 mph N/A   Clear
3:15 PM 60.1 °F - 32.0 °F 35% 29.86 in 10.0 mi South 17.3 mph - N/A   Clear
3:35 PM 60.3 °F - 32.0 °F 34% 29.85 in 10.0 mi South 16.1 mph - N/A   Clear
3:55 PM 60.6 °F - 32.0 °F 34% 29.84 in 10.0 mi South 17.3 mph 23.0 mph N/A   Clear
4:15 PM 60.8 °F - 32.0 °F 34% 29.84 in 10.0 mi South 19.6 mph - N/A   Clear
4:35 PM 60.8 °F - 32.0 °F 34% 29.84 in 10.0 mi South 18.4 mph - N/A   Clear
4:55 PM 60.3 °F - 32.0 °F 34% 29.85 in 10.0 mi South 12.7 mph - N/A   Clear
5:15 PM 59.9 °F - 32.5 °F 36% 29.85 in 10.0 mi South 10.4 mph 16.1 mph N/A   Clear
5:41 PM 59.0 °F - 32.0 °F 36% 29.86 in 10.0 mi South 10.4 mph - N/A   Clear
5:55 PM 57.2 °F - 32.4 °F 39% 29.86 in 10.0 mi South 6.9 mph - N/A   Clear
6:15 PM 54.7 °F - 32.4 °F 43% 29.87 in 10.0 mi SSW 5.8 mph - N/A   Clear
6:35 PM 51.3 °F - 32.0 °F 48% 29.88 in 10.0 mi South 5.8 mph - N/A   Clear
6:55 PM 48.4 °F - 32.0 °F 53% 29.89 in 10.0 mi South 8.1 mph - N/A   Clear
7:15 PM 47.7 °F - 32.0 °F 55% 29.89 in 10.0 mi SSE 8.1 mph - N/A   Clear
7:35 PM 47.1 °F - 32.2 °F 56% 29.90 in 10.0 mi SSE 9.2 mph - N/A   Clear
7:55 PM 45.5 °F 40.8 °F 32.2 °F 60% 29.91 in 10.0 mi South 9.2 mph - N/A   Clear
8:15 PM 44.8 °F 39.9 °F 32.2 °F 61% 29.91 in 10.0 mi SSE 9.2 mph - N/A   Clear
8:35 PM 44.1 °F 39.0 °F 32.0 °F 63% 29.91 in 10.0 mi South 9.2 mph - N/A   Clear
8:55 PM 43.5 °F 38.3 °F 32.2 °F 64% 29.92 in 10.0 mi South 9.2 mph - N/A   Clear
9:15 PM 43.2 °F 39.7 °F 32.2 °F 65% 29.93 in 10.0 mi SSW 5.8 mph - N/A   Clear
9:35 PM 40.6 °F 36.7 °F 32.0 °F 71% 29.95 in 10.0 mi WSW 5.8 mph - N/A   Clear
9:55 PM 42.3 °F 37.9 °F 32.2 °F 67% 29.95 in 10.0 mi SW 6.9 mph - N/A   Clear
10:15 PM 42.8 °F 37.5 °F 32.4 °F 67% 29.95 in 10.0 mi SSW 9.2 mph - N/A   Clear
10:35 PM 43.0 °F 38.8 °F 32.5 °F 67% 29.96 in 10.0 mi SSW 6.9 mph - N/A   Clear
10:55 PM 41.9 °F 36.9 °F 32.0 °F 68% 29.97 in 10.0 mi SW 8.1 mph - N/A   Clear
11:15 PM 41.4 °F 37.6 °F 32.2 °F 70% 29.97 in 10.0 mi SW 5.8 mph - N/A   Clear
11:35 PM 39.6 °F 36.3 °F 32.0 °F 74% 29.98 in 10.0 mi West 4.6 mph - N/A   Clear
11:55 PM 39.2 °F 35.9 °F 32.0 °F 75% 29.99 in 10.0 mi WSW 4.6 mph - N/A   Clear